Location: Baix
(44.7118°N, 4.7648°E)
Time: 17:06:20
(UTC+00:00)

SL-08 R/B - Pass Details

Date: 07 August 2020
Orbit: 673 x 740 km, 98.4° (Epoch: 22 September)

Event Time Altitude Azimuth Distance (km) Brightness Sun altitude
Exits shadow 02:43:58 17° 178° (S) 1,791 5.0 -16.9°
Maximum altitude 02:47:43 66° 258° (WSW) 809 3.4 -16.4°
Drops below altitude 10° 02:52:40 10° 341° (NNW) 2,259 6.2 -15.8°
Sets 02:54:59 0° 344° (NNW) 3,185 7.1 -15.5°
